RH
21 24 22 18 17 18 18 18 18 16 15 14 13 19 22 11 10 11 16 25 25 25 20 18 17 17 13 14 15 15 17 16 20 44 99 100 100 100 100 90 69 41 100 98 86
20 21 20 20 17 16 16 17 17 17 18 15 14 13 19 22 10 10 13 23 29 24 27 22 17 18 14 12 14 17 17 16 20 28 86 99 98 72 100 100 54 87 100 75 77
18 20 22 21 20 19 17 16 15 16 16 18 15 13 14 19 20 10 11 16 29 28 33 28 21 14 12 14 13 17 20 18 19 23 45 85 80 100 99 100 83 66 50 100 72
28 28 25 24 20 16 16 16 16 16 15 16 18 15 11 16 21 16 10 12 19 31 30 30 27 15 11 14 18 18 19 22 20 21 25 92 91 90 100 98 100 66 59 90 56
16 18 21 23 22 18 18 16 15 14 15 15 15 17 12 12 19 19 13 11 12 20 31 32 29 20 13 20 24 30 20 19 18 18 18 30 80 100 95 100 100 100 93 87 32
20 17 14 13 15 18 18 17 16 14 15 14 14 15 16 12 14 20 18 13 12 13 18 29 25 30 25 26 28 32 17 17 18 19 18 26 49 64 90 100 78 57 84 77 35
20 19 17 15 12 12 12 15 16 15 14 14 14 14 16 13 15 16 19 18 14 11 13 17 27 32 25 27 35 28 20 15 16 19 21 24 38 67 87 96 93 94 100 79 42
29 26 24 20 18 14 11 10 12 13 15 14 16 13 14 16 13 16 17 16 18 14 11 12 15 22 25 29 29 31 25 19 18 23 24 26 27 83 100 100 100 98 75 68 65
37 32 29 29 23 18 16 13 10 10 12 14 14 16 14 15 13 15 14 17 18 19 22 13 12 14 17 23 26 28 26 26 22 21 24 26 22 28 98 91 76 94 92 72 98
61 84 66 51 29 21 17 13 10 9 9 11 12 14 16 15 16 13 16 13 17 19 21 22 15 12 13 15 20 22 26 28 27 24 23 24 23 20 21 46 59 25 40 64 100
86 94 83 49 26 16 12 11 9 8 8 8 11 12 16 16 17 16 14 15 13 18 22 22 22 17 12 12 16 21 24 28 27 26 24 24 23 23 31 60 52 29 23 57 28
96 98 60 30 15 12 12 10 10 11 10 8 8 10 13 17 18 16 16 14 14 13 18 22 24 17 16 13 12 15 20 23 24 24 25 24 24 23 24 25 30 21 27 50 34
98 69 38 18 13 10 9 9 10 10 10 9 8 8 11 12 15 17 18 16 14 14 13 18 20 18 16 14 13 12 15 16 18 20 21 24 23 22 21 21 22 21 27 30 37
63 63 27 16 14 10 9 9 8 9 10 9 9 9 9 11 14 15 19 20 16 14 15 13 15 19 18 18 18 15 12 13 12 15 17 20 22 21 20 20 22 24 70 46 26
81 28 24 15 11 8 8 8 10 9 10 9 9 10 9 10 11 14 17 20 19 18 15 14 13 13 20 18 19 15 10 11 12 13 12 13 16 18 18 17 18 21 31 45 23
53 28 20 13 8 6 6 7 8 10 10 10 11 11 12 10 11 12 15 17 19 18 18 14 14 13 12 18 18 14 15 13 13 16 19 13 11 12 13 15 16 17 20 19 18
64 26 18 10 8 6 6 6 8 10 12 11 13 13 12 12 10 11 13 15 18 20 18 17 15 16 15 12 13 18 17 16 14 17 23 19 13 10 11 11 12 14 18 21 22
49 22 15 10 10 8 8 8 8 12 16 14 14 14 13 12 11 10 12 15 17 20 19 18 17 16 15 17 14 12 13 16 16 18 24 26 19 13 11 9 10 11 13 12 15
40 23 13 11 10 9 8 10 9 13 18 20 17 15 14 14 13 12 12 14 17 20 20 19 18 18 16 17 16 15 14 13 14 17 18 22 20 20 14 10 10 9 10 10 12
54 25 12 12 11 10 10 11 11 14 21 25 26 24 19 16 16 15 14 14 15 21 23 21 19 18 18 17 17 15 15 15 14 13 17 17 21 22 19 16 14 11 10 12 9
72 28 14 12 12 12 12 13 14 14 24 30 34 35 30 23 20 20 20 19 18 18 25 27 26 22 20 18 17 17 16 15 15 15 13 14 16 23 23 19 20 21 16 13 16
52 27 16 12 14 14 13 15 15 15 22 31 34 37 39 35 28 23 25 25 23 22 20 24 27 28 24 21 19 17 16 16 15 14 15 14 14 16 27 26 22 27 30 20 16
38 28 16 14 16 16 16 17 18 19 23 31 31 34 40 40 36 33 29 29 28 24 20 19 19 22 24 25 21 18 18 16 16 15 14 13 13 14 16 23 29 29 36 31 23
34 28 18 14 15 18 18 20 20 21 25 32 37 39 41 43 43 42 49 36 33 29 26 22 19 19 20 24 27 28 23 21 18 19 16 14 13 14 17 17 19 25 35 38 32
33 28 18 15 15 19 20 21 23 22 24 29 37 41 42 44 46 49 58 59 46 40 31 25 22 19 19 21 24 31 34 32 30 25 21 18 15 13 14 16 18 20 22 33 38
33 26 19 16 19 20 22 21 23 25 24 26 32 39 43 42 44 48 45 48 58 52 49 47 43 30 22 19 18 19 23 27 31 31 26 22 21 15 15 14 14 16 19 24 36
34 25 19 18 22 21 22 25 24 25 26 26 27 32 39 44 46 44 45 49 45 47 53 58 55 49 39 28 20 20 20 20 21 22 25 24 26 24 18 16 14 13 14 18 23
Wind_Speed
46 45 44 42 39 38 37 34 33 33 32 31 29 30 30 34 41 49 49 49 48 45 44 44 45 43 38 33 30 29 28 22 20 16 13 11 8 2 18 14 17 18 24 18 28
50 50 48 48 47 44 43 41 39 37 37 36 35 34 36 35 39 50 50 50 51 48 45 45 48 47 43 38 34 31 31 28 24 19 15 12 10 10 9 9 7 10 14 20 28
49 52 55 54 53 52 50 48 46 43 41 41 41 39 41 41 41 48 56 53 53 53 48 46 47 52 47 42 38 36 34 30 27 22 17 13 11 9 9 9 5 4 9 20 27
49 50 53 55 57 57 56 56 53 51 48 46 46 45 45 47 46 48 54 57 56 56 54 51 48 50 48 43 40 38 39 36 31 26 19 14 13 9 9 6 7 13 11 13 23
47 52 55 57 58 58 59 61 59 57 55 52 51 50 49 49 51 51 56 58 60 59 57 56 52 50 48 44 41 36 42 41 36 29 25 23 17 10 14 10 6 7 15 15 17
44 47 51 57 61 62 62 64 64 62 61 58 56 55 54 52 55 55 56 59 60 62 61 58 56 52 49 47 42 40 46 44 40 34 30 26 22 20 17 16 16 11 11 14 16
48 50 51 55 58 62 65 68 68 68 66 65 62 60 57 57 57 60 60 61 62 64 64 60 59 59 54 52 49 43 47 44 40 34 30 28 25 19 21 13 6 13 10 19 15
45 48 53 56 58 63 65 70 73 73 71 71 69 64 62 62 61 62 64 62 62 64 66 65 62 62 59 59 55 49 47 45 41 35 33 29 27 21 22 21 12 18 14 16 8
41 45 47 53 60 68 68 71 74 78 77 76 75 71 67 67 65 64 66 66 64 63 62 66 67 63 62 64 61 56 51 46 45 41 37 35 32 28 27 24 16 20 18 7 13
40 48 51 60 61 72 76 76 78 79 82 82 81 79 73 71 69 68 67 69 68 64 64 63 67 68 66 65 65 60 56 51 48 46 44 41 37 35 30 33 27 22 19 10 14
49 55 62 70 68 79 84 80 79 80 82 87 87 84 81 76 74 73 71 69 71 69 67 67 66 70 71 68 65 64 61 56 52 51 48 44 40 37 34 32 28 25 21 18 18
51 61 71 67 66 74 78 79 79 80 85 86 92 90 88 84 80 78 75 71 71 72 72 71 70 72 69 69 69 66 64 63 58 55 52 48 44 42 39 38 34 31 25 25 20
57 69 67 64 61 60 62 66 69 74 82 88 92 94 94 91 86 81 78 76 74 72 75 76 77 72 71 70 68 72 68 65 63 62 58 55 52 48 45 41 37 33 32 28 26
61 71 70 56 53 51 52 57 59 69 74 84 88 96 97 95 91 87 83 81 77 74 74 78 77 74 73 70 69 71 74 69 64 65 64 63 59 56 52 46 42 36 34 32 28
69 67 67 47 46 42 44 47 51 59 72 78 84 94 97 97 95 94 89 85 81 79 77 78 78 78 75 75 74 75 73 69 65 61 65 65 65 62 59 57 50 44 41 37 33
69 72 57 45 36 32 34 40 48 54 65 77 81 90 91 97 97 97 95 91 85 82 80 80 78 78 80 76 79 76 72 70 66 62 59 62 65 64 62 60 58 53 49 44 39
73 70 50 38 28 22 25 35 44 51 58 71 80 86 90 91 98 99 98 94 88 84 84 83 79 78 78 78 81 77 75 72 69 65 62 62 65 66 64 62 59 57 54 49 43
75 65 47 34 24 19 22 30 39 49 56 62 74 84 90 88 92 99 100 97 94 90 89 86 83 81 78 78 80 79 79 78 74 70 66 66 65 62 62 63 61 59 59 57 52
76 62 47 33 21 16 21 26 37 47 53 54 61 76 90 93 90 92 97 97 95 93 91 89 86 84 83 81 81 79 79 79 78 77 73 70 67 65 62 60 60 60 59 59 56
77 65 45 34 21 14 19 24 32 44 50 50 51 62 75 89 94 94 95 96 95 94 93 92 90 89 87 84 84 82 81 80 79 77 77 75 72 69 67 63 59 58 57 57 58
79 68 47 34 20 12 16 24 31 43 51 52 52 53 61 74 86 94 94 94 94 95 95 97 94 92 90 88 86 85 84 83 81 78 77 77 76 74 72 69 65 61 60 57 57
80 64 48 33 18 12 16 23 29 40 52 55 55 56 60 65 75 88 94 95 94 97 99 101 101 99 95 94 91 88 86 85 84 81 78 77 77 78 76 74 71 68 64 63 60
78 60 48 36 20 13 16 23 29 35 46 50 52 56 57 60 68 78 89 95 96 97 100 103 105 104 100 97 95 93 91 89 87 85 82 79 77 78 80 80 78 74 71 69 66
78 58 48 38 21 13 18 24 29 34 44 51 52 53 53 54 56 72 81 91 96 97 98 100 102 100 98 97 96 95 93 92 90 89 86 81 81 80 80 81 82 81 78 74 73
80 58 45 37 20 13 17 25 30 35 41 48 53 54 56 57 60 60 74 83 92 96 97 96 97 99 98 98 99 99 99 97 95 94 92 88 87 85 84 85 83 83 82 80 78
79 60 47 33 21 11 13 21 28 34 38 44 51 56 56 57 60 63 64 74 85 91 95 94 94 97 99 101 102 102 102 102 101 99 98 95 92 91 90 90 89 87 86 85 83
77 61 48 31 18 11 7 16 24 31 37 41 46 53 57 58 60 62 66 67 70 81 90 95 98 98 98 99 102 103 102 103 103 104 104 103 99 97 95 94 94 93 92 90 88
Wind_Direction
261 259 258 255 253 250 245 240 240 239 237 233 232 224 224 215 214 216 213 212 210 207 208 205 206 208 206 204 210 216 220 203 215 220 214 200 217 73 280 317 329 342 340 335 341
261 260 258 257 253 248 245 243 241 239 238 237 233 229 223 222 215 218 217 214 212 210 211 210 210 211 213 211 210 216 221 210 214 219 228 217 229 238 246 304 318 357 330 340 344
261 259 258 256 255 252 248 244 240 241 239 237 236 231 226 223 218 215 218 217 216 214 213 214 213 213 212 218 217 217 218 221 220 223 224 234 235 206 256 294 293 282 284 307 332
260 259 257 256 255 254 249 247 243 241 240 239 236 233 229 223 222 216 217 219 218 218 217 216 215 215 211 218 221 224 221 225 221 223 223 224 219 231 280 274 300 319 300 287 328
261 258 256 255 253 250 248 246 245 243 241 237 235 232 231 226 222 223 215 217 220 219 222 217 218 217 212 218 223 227 226 225 226 224 232 225 222 156 252 247 312 303 297 286 324
271 266 260 256 252 250 247 245 243 241 241 238 234 231 230 228 223 223 222 215 219 220 223 221 219 221 220 221 224 225 226 225 228 227 229 225 232 245 224 237 228 244 291 292 315
268 268 266 261 254 251 246 244 241 240 238 237 234 230 228 227 225 222 223 221 216 220 222 224 222 223 220 222 226 226 226 225 230 230 225 224 230 246 216 214 258 262 282 277 314
261 260 259 258 257 254 249 243 240 237 236 233 233 230 227 225 223 224 223 223 221 218 222 223 224 225 224 226 226 226 227 223 227 228 225 226 228 224 220 214 218 243 238 261 332
268 267 266 261 256 252 248 246 240 235 233 232 230 229 226 225 222 223 222 223 223 221 218 222 224 226 225 226 227 226 225 226 227 228 228 231 231 228 218 219 238 248 257 301 291
293 301 296 287 269 252 247 245 238 235 231 228 229 226 226 224 222 221 222 222 223 222 222 218 221 225 226 227 227 226 226 227 227 230 231 232 233 232 234 239 249 249 252 234 246
300 293 297 297 280 259 252 249 245 234 232 227 225 225 225 225 221 220 221 220 221 221 221 223 220 221 224 228 228 227 229 228 230 233 233 234 236 238 235 235 236 243 239 225 259
303 305 302 297 279 269 264 261 250 240 230 226 223 222 223 223 221 220 220 220 220 220 222 223 224 223 223 225 227 228 230 231 231 235 235 237 239 240 240 242 241 240 236 232 240
308 306 308 299 281 270 260 253 244 237 231 225 221 220 220 222 222 219 220 219 220 220 221 223 225 225 225 225 226 226 226 229 232 235 236 236 239 241 242 238 240 241 238 233 236
312 316 312 303 288 274 260 252 244 234 227 224 220 219 219 218 220 220 220 220 220 220 221 224 225 224 224 226 227 228 225 225 229 233 235 237 238 241 241 240 237 232 231 228 236
320 323 317 307 290 271 256 245 235 228 222 221 220 217 218 217 217 219 219 219 219 220 221 223 224 225 225 225 226 229 227 225 227 230 234 235 237 238 240 241 238 235 231 235 234
330 327 322 313 293 271 249 237 228 223 220 218 217 215 216 217 216 218 219 219 219 219 221 223 223 224 226 226 228 229 230 229 228 229 231 234 235 236 236 237 240 240 240 238 237
335 331 326 318 301 275 245 226 221 217 217 214 214 213 214 216 216 217 218 219 219 220 222 222 223 225 226 226 229 228 229 228 229 229 229 231 234 235 237 236 239 240 238 240 237
338 336 334 325 309 278 237 222 214 210 212 212 212 211 213 216 216 216 217 217 219 220 222 223 223 225 225 226 229 229 229 228 226 225 225 228 233 235 237 239 238 239 243 241 237
345 342 339 330 315 275 232 215 209 205 205 208 210 213 213 215 217 217 218 218 219 220 222 223 224 225 226 226 228 229 231 230 228 226 226 228 232 235 236 236 239 240 240 245 245
345 345 341 333 319 273 229 210 209 203 201 202 205 209 213 215 216 217 217 217 219 221 223 224 224 224 226 224 227 229 230 230 230 228 227 228 229 232 235 236 234 238 238 240 242
345 347 342 338 322 271 222 213 207 204 200 199 202 205 209 212 215 216 218 218 219 221 222 224 225 225 226 227 226 228 230 231 231 229 227 226 228 230 233 235 236 233 237 236 240
346 348 343 340 321 272 218 212 209 208 202 202 204 207 207 209 212 214 215 218 219 221 222 224 225 225 226 227 227 228 230 232 233 232 229 228 226 227 229 233 234 235 233 236 236
348 350 344 343 329 270 225 208 209 207 206 209 209 209 211 212 210 212 215 218 220 222 224 225 226 226 226 228 229 229 230 230 232 232 231 230 228 228 228 229 232 232 233 235 234
350 351 344 341 330 279 228 211 209 210 209 209 209 211 214 216 217 214 214 218 221 223 225 227 229 230 230 231 232 233 232 233 233 234 233 232 231 229 229 230 230 231 232 233 236
351 351 347 341 334 298 237 214 211 211 213 214 212 212 212 213 214 215 218 219 222 224 227 229 231 231 230 230 232 233 234 233 233 234 234 233 232 232 231 231 230 230 231 233 234
351 352 349 345 335 310 255 223 213 213 215 216 217 216 216 216 216 217 219 221 223 225 228 230 231 233 234 233 233 234 234 234 235 236 236 234 234 231 231 232 231 231 229 230 231
352 353 351 352 343 328 280 231 223 215 216 219 218 219 219 218 220 221 221 222 225 226 229 230 231 234 235 235 234 234 235 236 236 236 236 235 234 234 232 232 233 231 230 229 229